Data supplied by UK-AIR on 5/4/2008
All Data GMT hour ending 
Status: R =Ratified P=Provisional,P*=As supplied
,,Grangemouth,,,,,,,,,,,,,,,,,,,,,,,
Date,time,"Carbon monoxide",status,unit,"PM10 particulate matter (Hourly measured)",status,unit,"Nitric oxide",status,unit,"Nitrogen dioxide",status,unit,"Nitrogen oxides as nitrogen dioxide",status,unit,"Sulphur dioxide",status,unit
 
01-01-2003,01:00,,,,16,R,ugm-3 (GRAV EQ),4,R,ugm-3,13,R,ugm-3,19,R,ugm-3,5,R,ugm-3
01-01-2003,02:00,,,,14,R,ugm-3 (GRAV EQ),1,R,ugm-3,11,R,ugm-3,13,R,ugm-3,3,R,ugm-3
01-01-2003,03:00,,,,22,R,ugm-3 (GRAV EQ),3,R,ugm-3,17,R,ugm-3,21,R,ugm-3,5,R,ugm-3
01-01-2003,04:00,,,,14,R,ugm-3 (GRAV EQ),5,R,ugm-3,19,R,ugm-3,27,R,ugm-3,5,R,ugm-3
01-01-2003,05:00,,,,13,R,ugm-3 (GRAV EQ),6,R,ugm-3,19,R,ugm-3,29,R,ugm-3,8,R,ugm-3
01-01-2003,06:00,,,,10,R,ugm-3 (GRAV EQ),4,R,ugm-3,15,R,ugm-3,21,R,ugm-3,13,R,ugm-3
01-01-2003,07:00,,,,12,R,ugm-3 (GRAV EQ),8,R,ugm-3,21,R,ugm-3,32,R,ugm-3,13,R,ugm-3
01-01-2003,08:00,,,,13,R,ugm-3 (GRAV EQ),11,R,ugm-3,23,R,ugm-3,40,R,ugm-3,19,R,ugm-3
01-01-2003,09:00,,,,13,R,ugm-3 (GRAV EQ),13,R,ugm-3,25,R,ugm-3,44,R,ugm-3,16,R,ugm-3
01-01-2003,10:00,,,,12,R,ugm-3 (GRAV EQ),9,R,ugm-3,23,R,ugm-3,36,R,ugm-3,13,R,ugm-3
01-01-2003,11:00,,,,9,R,ugm-3 (GRAV EQ),10,R,ugm-3,23,R,ugm-3,38,R,ugm-3,11,R,ugm-3
01-01-2003,12:00,,,,5,R,ugm-3 (GRAV EQ),10,R,ugm-3,23,R,ugm-3,38,R,ugm-3,11,R,ugm-3
01-01-2003,13:00,,,,5,R,ugm-3 (GRAV EQ),9,R,ugm-3,21,R,ugm-3,34,R,ugm-3,11,R,ugm-3
01-01-2003,14:00,,,,7,R,ugm-3 (GRAV EQ),4,R,ugm-3,17,R,ugm-3,23,R,ugm-3,11,R,ugm-3
01-01-2003,15:00,,,,7,R,ugm-3 (GRAV EQ),4,R,ugm-3,17,R,ugm-3,23,R,ugm-3,11,R,ugm-3
01-01-2003,16:00,,,,7,R,ugm-3 (GRAV EQ),6,R,ugm-3,21,R,ugm-3,31,R,ugm-3,16,R,ugm-3
01-01-2003,17:00,,,,7,R,ugm-3 (GRAV EQ),10,R,ugm-3,21,R,ugm-3,36,R,ugm-3,13,R,ugm-3
01-01-2003,18:00,,,,7,R,ugm-3 (GRAV EQ),5,R,ugm-3,17,R,ugm-3,25,R,ugm-3,8,R,ugm-3
01-01-2003,19:00,,,,7,R,ugm-3 (GRAV EQ),4,R,ugm-3,17,R,ugm-3,23,R,ugm-3,11,R,ugm-3
01-01-2003,20:00,,,,7,R,ugm-3 (GRAV EQ),5,R,ugm-3,27,R,ugm-3,34,R,ugm-3,21,R,ugm-3
01-01-2003,21:00,,,,7,R,ugm-3 (GRAV EQ),9,R,ugm-3,19,R,ugm-3,32,R,ugm-3,8,R,ugm-3
01-01-2003,22:00,,,,8,R,ugm-3 (GRAV EQ),14,R,ugm-3,17,R,ugm-3,38,R,ugm-3,5,R,ugm-3
01-01-2003,23:00,,,,8,R,ugm-3 (GRAV EQ),15,R,ugm-3,17,R,ugm-3,40,R,ugm-3,8,R,ugm-3
01-01-2003,24:00,,,,8,R,ugm-3 (GRAV EQ),15,R,ugm-3,19,R,ugm-3,42,R,ugm-3,5,R,ugm-3
02-01-2003,01:00,,,,8,R,ugm-3 (GRAV EQ),15,R,ugm-3,19,R,ugm-3,42,R,ugm-3,5,R,ugm-3
02-01-2003,02:00,,,,8,R,ugm-3 (GRAV EQ),18,R,ugm-3,23,R,ugm-3,50,R,ugm-3,5,R,ugm-3
02-01-2003,03:00,,,,8,R,ugm-3 (GRAV EQ),5,R,ugm-3,15,R,ugm-3,23,R,ugm-3,3,R,ugm-3
02-01-2003,04:00,,,,5,R,ugm-3 (GRAV EQ),1,R,ugm-3,8,R,ugm-3,10,R,ugm-3,5,R,ugm-3
02-01-2003,05:00,,,,5,R,ugm-3 (GRAV EQ),1,R,ugm-3,6,R,ugm-3,8,R,ugm-3,5,R,ugm-3
02-01-2003,06:00,,,,5,R,ugm-3 (GRAV EQ),4,R,ugm-3,8,R,ugm-3,13,R,ugm-3,3,R,ugm-3
02-01-2003,07:00,,,,8,R,ugm-3 (GRAV EQ),4,R,ugm-3,10,R,ugm-3,15,R,ugm-3,3,R,ugm-3
02-01-2003,08:00,,,,12,R,ugm-3 (GRAV EQ),9,R,ugm-3,19,R,ugm-3,32,R,ugm-3,5,R,ugm-3
02-01-2003,09:00,,,,13,R,ugm-3 (GRAV EQ),8,R,ugm-3,17,R,ugm-3,29,R,ugm-3,35,R,ugm-3
02-01-2003,10:00,,,,22,R,ugm-3 (GRAV EQ),9,R,ugm-3,21,R,ugm-3,34,R,ugm-3,104,R,ugm-3
02-01-2003,11:00,,,,17,R,ugm-3 (GRAV EQ),8,R,ugm-3,21,R,ugm-3,32,R,ugm-3,80,R,ugm-3
02-01-2003,12:00,,,,12,R,ugm-3 (GRAV EQ),4,R,ugm-3,17,R,ugm-3,23,R,ugm-3,29,R,ugm-3
02-01-2003,13:00,,,,12,R,ugm-3 (GRAV EQ),5,R,ugm-3,17,R,ugm-3,25,R,ugm-3,32,R,ugm-3
02-01-2003,14:00,,,,12,R,ugm-3 (GRAV EQ),5,R,ugm-3,17,R,ugm-3,25,R,ugm-3,32,R,ugm-3
02-01-2003,15:00,,,,12,R,ugm-3 (GRAV EQ),6,R,ugm-3,17,R,ugm-3,27,R,ugm-3,40,R,ugm-3
02-01-2003,16:00,,,,20,R,ugm-3 (GRAV EQ),8,R,ugm-3,23,R,ugm-3,34,R,ugm-3,69,R,ugm-3
02-01-2003,17:00,,,,25,R,ugm-3 (GRAV EQ),13,R,ugm-3,27,R,ugm-3,46,R,ugm-3,122,R,ugm-3
02-01-2003,18:00,,,,25,R,ugm-3 (GRAV EQ),13,R,ugm-3,27,R,ugm-3,46,R,ugm-3,133,R,ugm-3
02-01-2003,19:00,,,,20,R,ugm-3 (GRAV EQ),5,R,ugm-3,17,R,ugm-3,25,R,ugm-3,37,R,ugm-3
02-01-2003,20:00,,,,23,R,ugm-3 (GRAV EQ),6,R,ugm-3,17,R,ugm-3,27,R,ugm-3,59,R,ugm-3
02-01-2003,21:00,,,,14,R,ugm-3 (GRAV EQ),3,R,ugm-3,6,R,ugm-3,10,R,ugm-3,11,R,ugm-3
02-01-2003,22:00,,,,9,R,ugm-3 (GRAV EQ),3,R,ugm-3,8,R,ugm-3,11,R,ugm-3,19,R,ugm-3
02-01-2003,23:00,,,,13,R,ugm-3 (GRAV EQ),6,R,ugm-3,17,R,ugm-3,27,R,ugm-3,43,R,ugm-3
02-01-2003,24:00,,,,17,R,ugm-3 (GRAV EQ),3,R,ugm-3,15,R,ugm-3,19,R,ugm-3,29,R,ugm-3
03-01-2003,01:00,,,,14,R,ugm-3 (GRAV EQ),1,R,ugm-3,8,R,ugm-3,10,R,ugm-3,11,R,ugm-3
03-01-2003,02:00,,,,16,R,ugm-3 (GRAV EQ),1,R,ugm-3,8,R,ugm-3,10,R,ugm-3,13,R,ugm-3
03-01-2003,03:00,,,,14,R,ugm-3 (GRAV EQ),1,R,ugm-3,13,R,ugm-3,15,R,ugm-3,8,R,ugm-3
03-01-2003,04:00,,,,12,R,ugm-3 (GRAV EQ),1,R,ugm-3,6,R,ugm-3,8,R,ugm-3,5,R,ugm-3
03-01-2003,05:00,,,,12,R,ugm-3 (GRAV EQ),1,R,ugm-3,6,R,ugm-3,8,R,ugm-3,3,R,ugm-3
03-01-2003,06:00,,,,9,R,ugm-3 (GRAV EQ),1,R,ugm-3,8,R,ugm-3,10,R,ugm-3,0,R,ugm-3
03-01-2003,07:00,,,,9,R,ugm-3 (GRAV EQ),1,R,ugm-3,11,R,ugm-3,13,R,ugm-3,0,R,ugm-3
03-01-2003,08:00,,,,10,R,ugm-3 (GRAV EQ),5,R,ugm-3,42,R,ugm-3,50,R,ugm-3,0,R,ugm-3
03-01-2003,09:00,,,,16,R,ugm-3 (GRAV EQ),41,R,ugm-3,73,R,ugm-3,136,R,ugm-3,5,R,ugm-3
03-01-2003,10:00,,,,21,R,ugm-3 (GRAV EQ),55,R,ugm-3,73,R,ugm-3,157,R,ugm-3,5,R,ugm-3
03-01-2003,11:00,,,,13,R,ugm-3 (GRAV EQ),19,R,ugm-3,52,R,ugm-3,80,R,ugm-3,3,R,ugm-3
03-01-2003,12:00,,,,12,R,ugm-3 (GRAV EQ),5,R,ugm-3,27,R,ugm-3,34,R,ugm-3,3,R,ugm-3
03-01-2003,13:00,,,,10,R,ugm-3 (GRAV EQ),3,R,ugm-3,13,R,ugm-3,17,R,ugm-3,0,R,ugm-3
03-01-2003,14:00,,,,9,R,ugm-3 (GRAV EQ),3,R,ugm-3,19,R,ugm-3,23,R,ugm-3,3,R,ugm-3
03-01-2003,15:00,,,,10,R,ugm-3 (GRAV EQ),3,R,ugm-3,23,R,ugm-3,27,R,ugm-3,3,R,ugm-3
03-01-2003,16:00,,,,12,R,ugm-3 (GRAV EQ),4,R,ugm-3,31,R,ugm-3,36,R,ugm-3,3,R,ugm-3
03-01-2003,17:00,,,,8,R,ugm-3 (GRAV EQ),1,R,ugm-3,19,R,ugm-3,21,R,ugm-3,3,R,ugm-3
03-01-2003,18:00,,,,8,R,ugm-3 (GRAV EQ),1,R,ugm-3,11,R,ugm-3,13,R,ugm-3,0,R,ugm-3
03-01-2003,19:00,,,,10,R,ugm-3 (GRAV EQ),1,R,ugm-3,19,R,ugm-3,21,R,ugm-3,0,R,ugm-3
03-01-2003,20:00,,,,13,R,ugm-3 (GRAV EQ),5,R,ugm-3,38,R,ugm-3,46,R,ugm-3,3,R,ugm-3
03-01-2003,21:00,,,,12,R,ugm-3 (GRAV EQ),5,R,ugm-3,36,R,ugm-3,44,R,ugm-3,3,R,ugm-3
03-01-2003,22:00,,,,9,R,ugm-3 (GRAV EQ),3,R,ugm-3,17,R,ugm-3,21,R,ugm-3,3,R,ugm-3
03-01-2003,23:00,,,,8,R,ugm-3 (GRAV EQ),1,R,ugm-3,4,R,ugm-3,6,R,ugm-3,0,R,ugm-3
03-01-2003,24:00,,,,10,R,ugm-3 (GRAV EQ),1,R,ugm-3,2,R,ugm-3,4,R,ugm-3,0,R,ugm-3
04-01-2003,01:00,,,,12,R,ugm-3 (GRAV EQ),1,R,ugm-3,4,R,ugm-3,6,R,ugm-3,3,R,ugm-3
04-01-2003,02:00,,,,12,R,ugm-3 (GRAV EQ),3,R,ugm-3,27,R,ugm-3,31,R,ugm-3,3,R,ugm-3
04-01-2003,03:00,,,,9,R,ugm-3 (GRAV EQ),1,R,ugm-3,19,R,ugm-3,21,R,ugm-3,3,R,ugm-3
04-01-2003,04:00,,,,8,R,ugm-3 (GRAV EQ),1,R,ugm-3,15,R,ugm-3,17,R,ugm-3,3,R,ugm-3
04-01-2003,05:00,,,,9,R,ugm-3 (GRAV EQ),3,R,ugm-3,32,R,ugm-3,36,R,ugm-3,3,R,ugm-3
04-01-2003,06:00,,,,9,R,ugm-3 (GRAV EQ),3,R,ugm-3,34,R,ugm-3,38,R,ugm-3,3,R,ugm-3
04-01-2003,07:00,,,,9,R,ugm-3 (GRAV EQ),8,R,ugm-3,53,R,ugm-3,65,R,ugm-3,3,R,ugm-3
04-01-2003,08:00,,,,10,R,ugm-3 (GRAV EQ),25,R,ugm-3,57,R,ugm-3,96,R,ugm-3,3,R,ugm-3
04-01-2003,09:00,,,,12,R,ugm-3 (GRAV EQ),79,R,ugm-3,71,R,ugm-3,191,R,ugm-3,5,R,ugm-3
04-01-2003,10:00,,,,13,R,ugm-3 (GRAV EQ),91,R,ugm-3,71,R,ugm-3,210,R,ugm-3,8,R,ugm-3
04-01-2003,11:00,,,,14,R,ugm-3 (GRAV EQ),86,R,ugm-3,71,R,ugm-3,202,R,ugm-3,11,R,ugm-3
04-01-2003,12:00,,,,16,R,ugm-3 (GRAV EQ),49,R,ugm-3,61,R,ugm-3,136,R,ugm-3,5,R,ugm-3
04-01-2003,13:00,,,,,,,30,R,ugm-3,52,R,ugm-3,97,R,ugm-3,5,R,ugm-3
04-01-2003,14:00,,,,13,R,ugm-3 (GRAV EQ),14,R,ugm-3,42,R,ugm-3,63,R,ugm-3,3,R,ugm-3
04-01-2003,15:00,,,,16,R,ugm-3 (GRAV EQ),18,R,ugm-3,50,R,ugm-3,76,R,ugm-3,3,R,ugm-3
04-01-2003,16:00,,,,20,R,ugm-3 (GRAV EQ),24,R,ugm-3,61,R,ugm-3,97,R,ugm-3,5,R,ugm-3
04-01-2003,17:00,,,,18,R,ugm-3 (GRAV EQ),34,R,ugm-3,67,R,ugm-3,118,R,ugm-3,5,R,ugm-3
04-01-2003,18:00,,,,17,R,ugm-3 (GRAV EQ),43,R,ugm-3,73,R,ugm-3,138,R,ugm-3,5,R,ugm-3
04-01-2003,19:00,,,,22,R,ugm-3 (GRAV EQ),81,R,ugm-3,71,R,ugm-3,195,R,ugm-3,8,R,ugm-3
04-01-2003,20:00,,,,25,R,ugm-3 (GRAV EQ),95,R,ugm-3,69,R,ugm-3,214,R,ugm-3,11,R,ugm-3
04-01-2003,21:00,,,,25,R,ugm-3 (GRAV EQ),88,R,ugm-3,67,R,ugm-3,201,R,ugm-3,11,R,ugm-3
04-01-2003,22:00,,,,25,R,ugm-3 (GRAV EQ),110,R,ugm-3,67,R,ugm-3,235,R,ugm-3,8,R,ugm-3
04-01-2003,23:00,,,,25,R,ugm-3 (GRAV EQ),76,R,ugm-3,61,R,ugm-3,178,R,ugm-3,8,R,ugm-3
04-01-2003,24:00,,,,25,R,ugm-3 (GRAV EQ),74,R,ugm-3,59,R,ugm-3,172,R,ugm-3,8,R,ugm-3
05-01-2003,01:00,,,,23,R,ugm-3 (GRAV EQ),78,R,ugm-3,57,R,ugm-3,176,R,ugm-3,5,R,ugm-3
05-01-2003,02:00,,,,22,R,ugm-3 (GRAV EQ),68,R,ugm-3,55,R,ugm-3,159,R,ugm-3,5,R,ugm-3
05-01-2003,03:00,,,,21,R,ugm-3 (GRAV EQ),53,R,ugm-3,53,R,ugm-3,134,R,ugm-3,5,R,ugm-3
05-01-2003,04:00,,,,18,R,ugm-3 (GRAV EQ),46,R,ugm-3,50,R,ugm-3,120,R,ugm-3,5,R,ugm-3
05-01-2003,05:00,,,,16,R,ugm-3 (GRAV EQ),30,R,ugm-3,46,R,ugm-3,92,R,ugm-3,5,R,ugm-3
05-01-2003,06:00,,,,18,R,ugm-3 (GRAV EQ),31,R,ugm-3,46,R,ugm-3,94,R,ugm-3,5,R,ugm-3
05-01-2003,07:00,,,,17,R,ugm-3 (GRAV EQ),36,R,ugm-3,44,R,ugm-3,99,R,ugm-3,5,R,ugm-3
05-01-2003,08:00,,,,16,R,ugm-3 (GRAV EQ),74,R,ugm-3,48,R,ugm-3,160,R,ugm-3,5,R,ugm-3
05-01-2003,09:00,,,,18,R,ugm-3 (GRAV EQ),86,R,ugm-3,52,R,ugm-3,183,R,ugm-3,5,R,ugm-3
05-01-2003,10:00,,,,20,R,ugm-3 (GRAV EQ),94,R,ugm-3,53,R,ugm-3,197,R,ugm-3,8,R,ugm-3
05-01-2003,11:00,,,,17,R,ugm-3 (GRAV EQ),70,R,ugm-3,50,R,ugm-3,157,R,ugm-3,5,R,ugm-3
05-01-2003,12:00,,,,18,R,ugm-3 (GRAV EQ),44,R,ugm-3,46,R,ugm-3,113,R,ugm-3,5,R,ugm-3
05-01-2003,13:00,,,,17,R,ugm-3 (GRAV EQ),41,R,ugm-3,44,R,ugm-3,107,R,ugm-3,5,R,ugm-3
05-01-2003,14:00,,,,22,R,ugm-3 (GRAV EQ),33,R,ugm-3,40,R,ugm-3,90,R,ugm-3,5,R,ugm-3
05-01-2003,15:00,,,,27,R,ugm-3 (GRAV EQ),38,R,ugm-3,44,R,ugm-3,101,R,ugm-3,5,R,ugm-3
05-01-2003,16:00,,,,33,R,ugm-3 (GRAV EQ),25,R,ugm-3,46,R,ugm-3,84,R,ugm-3,5,R,ugm-3
05-01-2003,17:00,,,,31,R,ugm-3 (GRAV EQ),31,R,ugm-3,46,R,ugm-3,94,R,ugm-3,8,R,ugm-3
05-01-2003,18:00,,,,36,R,ugm-3 (GRAV EQ),73,R,ugm-3,52,R,ugm-3,162,R,ugm-3,11,R,ugm-3
05-01-2003,19:00,,,,42,R,ugm-3 (GRAV EQ),139,R,ugm-3,59,R,ugm-3,271,R,ugm-3,13,R,ugm-3
05-01-2003,20:00,,,,46,R,ugm-3 (GRAV EQ),84,R,ugm-3,52,R,ugm-3,180,R,ugm-3,11,R,ugm-3
05-01-2003,21:00,,,,88,R,ugm-3 (GRAV EQ),111,R,ugm-3,57,R,ugm-3,227,R,ugm-3,8,R,ugm-3
05-01-2003,22:00,,,,30,R,ugm-3 (GRAV EQ),90,R,ugm-3,55,R,ugm-3,193,R,ugm-3,8,R,ugm-3
05-01-2003,23:00,,,,26,R,ugm-3 (GRAV EQ),111,R,ugm-3,55,R,ugm-3,225,R,ugm-3,11,R,ugm-3
05-01-2003,24:00,,,,26,R,ugm-3 (GRAV EQ),105,R,ugm-3,55,R,ugm-3,216,R,ugm-3,8,R,ugm-3
06-01-2003,01:00,,,,25,R,ugm-3 (GRAV EQ),105,R,ugm-3,53,R,ugm-3,214,R,ugm-3,11,R,ugm-3
06-01-2003,02:00,,,,25,R,ugm-3 (GRAV EQ),99,R,ugm-3,55,R,ugm-3,206,R,ugm-3,11,R,ugm-3
06-01-2003,03:00,,,,23,R,ugm-3 (GRAV EQ),113,R,ugm-3,52,R,ugm-3,223,R,ugm-3,8,R,ugm-3
06-01-2003,04:00,,,,22,R,ugm-3 (GRAV EQ),91,R,ugm-3,46,R,ugm-3,185,R,ugm-3,8,R,ugm-3
06-01-2003,05:00,,,,21,R,ugm-3 (GRAV EQ),91,R,ugm-3,48,R,ugm-3,187,R,ugm-3,13,R,ugm-3
06-01-2003,06:00,,,,18,R,ugm-3 (GRAV EQ),89,R,ugm-3,48,R,ugm-3,183,R,ugm-3,11,R,ugm-3
06-01-2003,07:00,,,,16,R,ugm-3 (GRAV EQ),110,R,ugm-3,53,R,ugm-3,222,R,ugm-3,8,R,ugm-3
06-01-2003,08:00,,,,23,R,ugm-3 (GRAV EQ),186,R,ugm-3,67,R,ugm-3,351,R,ugm-3,11,R,ugm-3
06-01-2003,09:00,,,,34,R,ugm-3 (GRAV EQ),258,R,ugm-3,86,R,ugm-3,479,R,ugm-3,16,R,ugm-3
06-01-2003,10:00,,,,52,R,ugm-3 (GRAV EQ),319,R,ugm-3,90,R,ugm-3,577,R,ugm-3,19,R,ugm-3
06-01-2003,11:00,,,,46,R,ugm-3 (GRAV EQ),301,R,ugm-3,97,R,ugm-3,558,R,ugm-3,21,R,ugm-3
06-01-2003,12:00,,,,83,R,ugm-3 (GRAV EQ),474,R,ugm-3,145,R,ugm-3,869,R,ugm-3,27,R,ugm-3
06-01-2003,13:00,,,,60,R,ugm-3 (GRAV EQ),228,R,ugm-3,99,R,ugm-3,447,R,ugm-3,21,R,ugm-3
06-01-2003,14:00,,,,40,R,ugm-3 (GRAV EQ),115,R,ugm-3,78,R,ugm-3,254,R,ugm-3,19,R,ugm-3
06-01-2003,15:00,,,,47,R,ugm-3 (GRAV EQ),123,R,ugm-3,82,R,ugm-3,269,R,ugm-3,16,R,ugm-3
06-01-2003,16:00,,,,53,R,ugm-3 (GRAV EQ),163,R,ugm-3,84,R,ugm-3,332,R,ugm-3,21,R,ugm-3
06-01-2003,17:00,,,,51,R,ugm-3 (GRAV EQ),205,R,ugm-3,90,R,ugm-3,403,R,ugm-3,13,R,ugm-3
06-01-2003,18:00,,,,40,R,ugm-3 (GRAV EQ),114,R,ugm-3,74,R,ugm-3,248,R,ugm-3,11,R,ugm-3
06-01-2003,19:00,,,,39,R,ugm-3 (GRAV EQ),158,R,ugm-3,82,R,ugm-3,323,R,ugm-3,11,R,ugm-3
06-01-2003,20:00,,,,78,R,ugm-3 (GRAV EQ),403,R,ugm-3,111,R,ugm-3,726,R,ugm-3,21,R,ugm-3
06-01-2003,21:00,,,,53,R,ugm-3 (GRAV EQ),243,R,ugm-3,92,R,ugm-3,462,R,ugm-3,16,R,ugm-3
06-01-2003,22:00,,,,43,R,ugm-3 (GRAV EQ),218,R,ugm-3,80,R,ugm-3,413,R,ugm-3,16,R,ugm-3
06-01-2003,23:00,,,,35,R,ugm-3 (GRAV EQ),168,R,ugm-3,73,R,ugm-3,329,R,ugm-3,11,R,ugm-3
06-01-2003,24:00,,,,29,R,ugm-3 (GRAV EQ),105,R,ugm-3,59,R,ugm-3,220,R,ugm-3,13,R,ugm-3
07-01-2003,01:00,,,,29,R,ugm-3 (GRAV EQ),116,R,ugm-3,57,R,ugm-3,235,R,ugm-3,11,R,ugm-3
07-01-2003,02:00,,,,25,R,ugm-3 (GRAV EQ),103,R,ugm-3,57,R,ugm-3,214,R,ugm-3,8,R,ugm-3
07-01-2003,03:00,,,,23,R,ugm-3 (GRAV EQ),94,R,ugm-3,53,R,ugm-3,197,R,ugm-3,8,R,ugm-3
07-01-2003,04:00,,,,17,R,ugm-3 (GRAV EQ),60,R,ugm-3,48,R,ugm-3,139,R,ugm-3,8,R,ugm-3
07-01-2003,05:00,,,,10,R,ugm-3 (GRAV EQ),33,R,ugm-3,52,R,ugm-3,101,R,ugm-3,5,R,ugm-3
07-01-2003,06:00,,,,12,R,ugm-3 (GRAV EQ),31,R,ugm-3,48,R,ugm-3,96,R,ugm-3,5,R,ugm-3
07-01-2003,07:00,,,,20,R,ugm-3 (GRAV EQ),154,R,ugm-3,71,R,ugm-3,306,R,ugm-3,11,R,ugm-3
07-01-2003,08:00,,,,25,R,ugm-3 (GRAV EQ),144,R,ugm-3,65,R,ugm-3,285,R,ugm-3,11,R,ugm-3
07-01-2003,09:00,,,,30,R,ugm-3 (GRAV EQ),170,R,ugm-3,74,R,ugm-3,334,R,ugm-3,13,R,ugm-3
07-01-2003,10:00,,,,39,R,ugm-3 (GRAV EQ),228,R,ugm-3,86,R,ugm-3,434,R,ugm-3,13,R,ugm-3
07-01-2003,11:00,,,,39,R,ugm-3 (GRAV EQ),229,R,ugm-3,97,R,ugm-3,447,R,ugm-3,19,R,ugm-3
07-01-2003,12:00,,,,16,R,ugm-3 (GRAV EQ),58,R,ugm-3,67,R,ugm-3,155,R,ugm-3,11,R,ugm-3
07-01-2003,13:00,,,,10,R,ugm-3 (GRAV EQ),15,R,ugm-3,44,R,ugm-3,67,R,ugm-3,5,R,ugm-3
07-01-2003,14:00,,,,8,R,ugm-3 (GRAV EQ),6,R,ugm-3,23,R,ugm-3,32,R,ugm-3,5,R,ugm-3
07-01-2003,15:00,,,,12,R,ugm-3 (GRAV EQ),5,R,ugm-3,32,R,ugm-3,40,R,ugm-3,3,R,ugm-3
07-01-2003,16:00,,,,10,R,ugm-3 (GRAV EQ),4,R,ugm-3,23,R,ugm-3,29,R,ugm-3,3,R,ugm-3
07-01-2003,17:00,,,,10,R,ugm-3 (GRAV EQ),4,R,ugm-3,36,R,ugm-3,42,R,ugm-3,3,R,ugm-3
07-01-2003,18:00,,,,18,R,ugm-3 (GRAV EQ),13,R,ugm-3,57,R,ugm-3,76,R,ugm-3,8,R,ugm-3
07-01-2003,19:00,,,,29,R,ugm-3 (GRAV EQ),128,R,ugm-3,96,R,ugm-3,290,R,ugm-3,13,R,ugm-3
07-01-2003,20:00,,,,31,R,ugm-3 (GRAV EQ),111,R,ugm-3,86,R,ugm-3,256,R,ugm-3,16,R,ugm-3
07-01-2003,21:00,,,,30,R,ugm-3 (GRAV EQ),106,R,ugm-3,88,R,ugm-3,250,R,ugm-3,16,R,ugm-3
07-01-2003,22:00,,,,33,R,ugm-3 (GRAV EQ),116,R,ugm-3,84,R,ugm-3,262,R,ugm-3,16,R,ugm-3
07-01-2003,23:00,,,,30,R,ugm-3 (GRAV EQ),98,R,ugm-3,76,R,ugm-3,225,R,ugm-3,13,R,ugm-3
07-01-2003,24:00,,,,25,R,ugm-3 (GRAV EQ),51,R,ugm-3,65,R,ugm-3,143,R,ugm-3,11,R,ugm-3
08-01-2003,01:00,,,,23,R,ugm-3 (GRAV EQ),23,R,ugm-3,61,R,ugm-3,96,R,ugm-3,8,R,ugm-3
08-01-2003,02:00,,,,23,R,ugm-3 (GRAV EQ),23,R,ugm-3,55,R,ugm-3,90,R,ugm-3,8,R,ugm-3
08-01-2003,03:00,,,,20,R,ugm-3 (GRAV EQ),11,R,ugm-3,52,R,ugm-3,69,R,ugm-3,8,R,ugm-3
08-01-2003,04:00,,,,17,R,ugm-3 (GRAV EQ),6,R,ugm-3,44,R,ugm-3,53,R,ugm-3,5,R,ugm-3
08-01-2003,05:00,,,,13,R,ugm-3 (GRAV EQ),4,R,ugm-3,40,R,ugm-3,46,R,ugm-3,5,R,ugm-3
08-01-2003,06:00,,,,12,R,ugm-3 (GRAV EQ),5,R,ugm-3,50,R,ugm-3,57,R,ugm-3,5,R,ugm-3
08-01-2003,07:00,,,,14,R,ugm-3 (GRAV EQ),19,R,ugm-3,52,R,ugm-3,80,R,ugm-3,80,R,ugm-3
08-01-2003,08:00,,,,16,R,ugm-3 (GRAV EQ),14,R,ugm-3,44,R,ugm-3,65,R,ugm-3,165,R,ugm-3
08-01-2003,09:00,,,,13,R,ugm-3 (GRAV EQ),14,R,ugm-3,36,R,ugm-3,57,R,ugm-3,64,R,ugm-3
08-01-2003,10:00,,,,9,R,ugm-3 (GRAV EQ),4,R,ugm-3,25,R,ugm-3,31,R,ugm-3,16,R,ugm-3
08-01-2003,11:00,,,,8,R,ugm-3 (GRAV EQ),6,R,ugm-3,27,R,ugm-3,36,R,ugm-3,21,R,ugm-3
08-01-2003,12:00,,,,10,R,ugm-3 (GRAV EQ),6,R,ugm-3,27,R,ugm-3,36,R,ugm-3,19,R,ugm-3
08-01-2003,13:00,,,,12,R,ugm-3 (GRAV EQ),6,R,ugm-3,29,R,ugm-3,38,R,ugm-3,24,R,ugm-3
08-01-2003,14:00,,,,12,R,ugm-3 (GRAV EQ),9,R,ugm-3,34,R,ugm-3,48,R,ugm-3,27,R,ugm-3
08-01-2003,15:00,,,,12,R,ugm-3 (GRAV EQ),6,R,ugm-3,31,R,ugm-3,40,R,ugm-3,24,R,ugm-3
08-01-2003,16:00,,,,18,R,ugm-3 (GRAV EQ),8,R,ugm-3,42,R,ugm-3,53,R,ugm-3,11,R,ugm-3
08-01-2003,17:00,,,,9,R,ugm-3 (GRAV EQ),4,R,ugm-3,25,R,ugm-3,31,R,ugm-3,5,R,ugm-3
08-01-2003,18:00,,,,12,R,ugm-3 (GRAV EQ),4,R,ugm-3,23,R,ugm-3,29,R,ugm-3,19,R,ugm-3
08-01-2003,19:00,,,,10,R,ugm-3 (GRAV EQ),3,R,ugm-3,15,R,ugm-3,19,R,ugm-3,11,R,ugm-3
08-01-2003,20:00,,,,12,R,ugm-3 (GRAV EQ),1,R,ugm-3,10,R,ugm-3,11,R,ugm-3,5,R,ugm-3
08-01-2003,21:00,,,,10,R,ugm-3 (GRAV EQ),3,R,ugm-3,13,R,ugm-3,17,R,ugm-3,8,R,ugm-3
08-01-2003,22:00,,,,10,R,ugm-3 (GRAV EQ),3,R,ugm-3,13,R,ugm-3,17,R,ugm-3,13,R,ugm-3
08-01-2003,23:00,,,,9,R,ugm-3 (GRAV EQ),1,R,ugm-3,8,R,ugm-3,10,R,ugm-3,3,R,ugm-3
08-01-2003,24:00,,,,14,R,ugm-3 (GRAV EQ),3,R,ugm-3,19,R,ugm-3,23,R,ugm-3,27,R,ugm-3
09-01-2003,01:00,,,,12,R,ugm-3 (GRAV EQ),3,R,ugm-3,13,R,ugm-3,17,R,ugm-3,19,R,ugm-3
09-01-2003,02:00,,,,10,R,ugm-3 (GRAV EQ),1,R,ugm-3,15,R,ugm-3,17,R,ugm-3,19,R,ugm-3
09-01-2003,03:00,,,,7,R,ugm-3 (GRAV EQ),1,R,ugm-3,8,R,ugm-3,10,R,ugm-3,8,R,ugm-3
09-01-2003,04:00,,,,8,R,ugm-3 (GRAV EQ),1,R,ugm-3,11,R,ugm-3,13,R,ugm-3,8,R,ugm-3
09-01-2003,05:00,,,,8,R,ugm-3 (GRAV EQ),3,R,ugm-3,17,R,ugm-3,21,R,ugm-3,8,R,ugm-3
09-01-2003,06:00,,,,10,R,ugm-3 (GRAV EQ),3,R,ugm-3,25,R,ugm-3,29,R,ugm-3,13,R,ugm-3
09-01-2003,07:00,,,,12,R,ugm-3 (GRAV EQ),4,R,ugm-3,29,R,ugm-3,34,R,ugm-3,19,R,ugm-3
09-01-2003,08:00,,,,12,R,ugm-3 (GRAV EQ),8,R,ugm-3,44,R,ugm-3,55,R,ugm-3,27,R,ugm-3
09-01-2003,09:00,,,,14,R,ugm-3 (GRAV EQ),6,R,ugm-3,48,R,ugm-3,57,R,ugm-3,8,R,ugm-3
09-01-2003,10:00,,,,35,R,ugm-3 (GRAV EQ),5,R,ugm-3,44,R,ugm-3,52,R,ugm-3,3,R,ugm-3
09-01-2003,11:00,,,,21,R,ugm-3 (GRAV EQ),16,R,ugm-3,48,R,ugm-3,73,R,ugm-3,3,R,ugm-3
09-01-2003,12:00,,,,30,R,ugm-3 (GRAV EQ),5,R,ugm-3,34,R,ugm-3,42,R,ugm-3,3,R,ugm-3
09-01-2003,13:00,,,,16,R,ugm-3 (GRAV EQ),6,R,ugm-3,38,R,ugm-3,48,R,ugm-3,3,R,ugm-3
09-01-2003,14:00,,,,13,R,ugm-3 (GRAV EQ),5,R,ugm-3,34,R,ugm-3,42,R,ugm-3,3,R,ugm-3
09-01-2003,15:00,,,,14,R,ugm-3 (GRAV EQ),4,R,ugm-3,27,R,ugm-3,32,R,ugm-3,3,R,ugm-3
09-01-2003,16:00,,,,14,R,ugm-3 (GRAV EQ),4,R,ugm-3,29,R,ugm-3,34,R,ugm-3,0,R,ugm-3
09-01-2003,17:00,,,,14,R,ugm-3 (GRAV EQ),3,R,ugm-3,32,R,ugm-3,36,R,ugm-3,3,R,ugm-3
09-01-2003,18:00,,,,16,R,ugm-3 (GRAV EQ),4,R,ugm-3,42,R,ugm-3,48,R,ugm-3,3,R,ugm-3
09-01-2003,19:00,,,,18,R,ugm-3 (GRAV EQ),20,R,ugm-3,74,R,ugm-3,105,R,ugm-3,3,R,ugm-3
09-01-2003,20:00,,,,17,R,ugm-3 (GRAV EQ),15,R,ugm-3,69,R,ugm-3,92,R,ugm-3,5,R,ugm-3
09-01-2003,21:00,,,,18,R,ugm-3 (GRAV EQ),9,R,ugm-3,63,R,ugm-3,76,R,ugm-3,3,R,ugm-3
09-01-2003,22:00,,,,14,R,ugm-3 (GRAV EQ),8,R,ugm-3,59,R,ugm-3,71,R,ugm-3,3,R,ugm-3
09-01-2003,23:00,,,,17,R,ugm-3 (GRAV EQ),4,R,ugm-3,52,R,ugm-3,57,R,ugm-3,5,R,ugm-3
09-01-2003,24:00,,,,10,R,ugm-3 (GRAV EQ),4,R,ugm-3,50,R,ugm-3,55,R,ugm-3,5,R,ugm-3
10-01-2003,01:00,,,,8,R,ugm-3 (GRAV EQ),3,R,ugm-3,31,R,ugm-3,34,R,ugm-3,8,R,ugm-3
10-01-2003,02:00,,,,8,R,ugm-3 (GRAV EQ),1,R,ugm-3,34,R,ugm-3,36,R,ugm-3,5,R,ugm-3
10-01-2003,03:00,,,,9,R,ugm-3 (GRAV EQ),1,R,ugm-3,44,R,ugm-3,46,R,ugm-3,8,R,ugm-3
10-01-2003,04:00,,,,10,R,ugm-3 (GRAV EQ),3,R,ugm-3,48,R,ugm-3,52,R,ugm-3,8,R,ugm-3
10-01-2003,05:00,,,,12,R,ugm-3 (GRAV EQ),14,R,ugm-3,55,R,ugm-3,76,R,ugm-3,8,R,ugm-3
10-01-2003,06:00,,,,12,R,ugm-3 (GRAV EQ),28,R,ugm-3,57,R,ugm-3,99,R,ugm-3,5,R,ugm-3
10-01-2003,07:00,,,,12,R,ugm-3 (GRAV EQ),66,R,ugm-3,63,R,ugm-3,164,R,ugm-3,5,R,ugm-3
10-01-2003,08:00,,,,17,R,ugm-3 (GRAV EQ),100,R,ugm-3,74,R,ugm-3,227,R,ugm-3,8,R,ugm-3
10-01-2003,09:00,,,,34,R,ugm-3 (GRAV EQ),210,R,ugm-3,97,R,ugm-3,418,R,ugm-3,13,R,ugm-3
10-01-2003,10:00,,,,56,R,ugm-3 (GRAV EQ),314,R,ugm-3,115,R,ugm-3,594,R,ugm-3,19,R,ugm-3
10-01-2003,11:00,,,,31,R,ugm-3 (GRAV EQ),195,R,ugm-3,96,R,ugm-3,393,R,ugm-3,13,R,ugm-3
10-01-2003,12:00,,,,27,R,ugm-3 (GRAV EQ),105,R,ugm-3,78,R,ugm-3,239,R,ugm-3,11,R,ugm-3
10-01-2003,13:00,,,,23,R,ugm-3 (GRAV EQ),60,R,ugm-3,69,R,ugm-3,160,R,ugm-3,8,R,ugm-3
10-01-2003,14:00,,,,23,R,ugm-3 (GRAV EQ),35,R,ugm-3,65,R,ugm-3,118,R,ugm-3,5,R,ugm-3
10-01-2003,15:00,,,,26,R,ugm-3 (GRAV EQ),43,R,ugm-3,73,R,ugm-3,138,R,ugm-3,8,R,ugm-3
10-01-2003,16:00,,,,30,R,ugm-3 (GRAV EQ),64,R,ugm-3,74,R,ugm-3,172,R,ugm-3,8,R,ugm-3
10-01-2003,17:00,,,,34,R,ugm-3 (GRAV EQ),119,R,ugm-3,86,R,ugm-3,267,R,ugm-3,11,R,ugm-3
10-01-2003,18:00,,,,42,R,ugm-3 (GRAV EQ),188,R,ugm-3,96,R,ugm-3,382,R,ugm-3,13,R,ugm-3
10-01-2003,19:00,,,,47,R,ugm-3 (GRAV EQ),215,R,ugm-3,97,R,ugm-3,426,R,ugm-3,16,R,ugm-3
10-01-2003,20:00,,,,70,R,ugm-3 (GRAV EQ),229,R,ugm-3,96,R,ugm-3,445,R,ugm-3,16,R,ugm-3
10-01-2003,21:00,,,,66,R,ugm-3 (GRAV EQ),223,R,ugm-3,88,R,ugm-3,428,R,ugm-3,16,R,ugm-3
10-01-2003,22:00,,,,60,R,ugm-3 (GRAV EQ),299,R,ugm-3,99,R,ugm-3,556,R,ugm-3,19,R,ugm-3
10-01-2003,23:00,,,,51,R,ugm-3 (GRAV EQ),296,R,ugm-3,97,R,ugm-3,550,R,ugm-3,16,R,ugm-3
10-01-2003,24:00,,,,46,R,ugm-3 (GRAV EQ),266,R,ugm-3,88,R,ugm-3,495,R,ugm-3,19,R,ugm-3
11-01-2003,01:00,,,,43,R,ugm-3 (GRAV EQ),229,R,ugm-3,82,R,ugm-3,432,R,ugm-3,13,R,ugm-3
11-01-2003,02:00,,,,38,R,ugm-3 (GRAV EQ),200,R,ugm-3,76,R,ugm-3,382,R,ugm-3,13,R,ugm-3
11-01-2003,03:00,,,,29,R,ugm-3 (GRAV EQ),128,R,ugm-3,67,R,ugm-3,262,R,ugm-3,11,R,ugm-3
11-01-2003,04:00,,,,27,R,ugm-3 (GRAV EQ),145,R,ugm-3,65,R,ugm-3,287,R,ugm-3,11,R,ugm-3
11-01-2003,05:00,,,,23,R,ugm-3 (GRAV EQ),138,R,ugm-3,59,R,ugm-3,269,R,ugm-3,8,R,ugm-3
11-01-2003,06:00,,,,22,R,ugm-3 (GRAV EQ),83,R,ugm-3,57,R,ugm-3,183,R,ugm-3,8,R,ugm-3
11-01-2003,07:00,,,,21,R,ugm-3 (GRAV EQ),90,R,ugm-3,57,R,ugm-3,195,R,ugm-3,5,R,ugm-3
11-01-2003,08:00,,,,27,R,ugm-3 (GRAV EQ),100,R,ugm-3,59,R,ugm-3,212,R,ugm-3,8,R,ugm-3
11-01-2003,09:00,,,,36,R,ugm-3 (GRAV EQ),125,R,ugm-3,63,R,ugm-3,254,R,ugm-3,11,R,ugm-3
11-01-2003,10:00,,,,44,R,ugm-3 (GRAV EQ),138,R,ugm-3,65,R,ugm-3,275,R,ugm-3,11,R,ugm-3
11-01-2003,11:00,,,,33,R,ugm-3 (GRAV EQ),129,R,ugm-3,67,R,ugm-3,264,R,ugm-3,11,R,ugm-3
11-01-2003,12:00,,,,17,R,ugm-3 (GRAV EQ),130,R,ugm-3,71,R,ugm-3,269,R,ugm-3,,,
11-01-2003,13:00,,,,38,R,ugm-3 (GRAV EQ),96,R,ugm-3,63,R,ugm-3,210,R,ugm-3,11,R,ugm-3
11-01-2003,14:00,,,,22,R,ugm-3 (GRAV EQ),35,R,ugm-3,53,R,ugm-3,107,R,ugm-3,8,R,ugm-3
11-01-2003,15:00,,,,27,R,ugm-3 (GRAV EQ),41,R,ugm-3,57,R,ugm-3,120,R,ugm-3,8,R,ugm-3
11-01-2003,16:00,,,,26,R,ugm-3 (GRAV EQ),48,R,ugm-3,55,R,ugm-3,128,R,ugm-3,11,R,ugm-3
11-01-2003,17:00,,,,21,R,ugm-3 (GRAV EQ),41,R,ugm-3,61,R,ugm-3,124,R,ugm-3,11,R,ugm-3
11-01-2003,18:00,,,,18,R,ugm-3 (GRAV EQ),35,R,ugm-3,67,R,ugm-3,120,R,ugm-3,8,R,ugm-3
11-01-2003,19:00,,,,18,R,ugm-3 (GRAV EQ),39,R,ugm-3,67,R,ugm-3,126,R,ugm-3,8,R,ugm-3
11-01-2003,20:00,,,,16,R,ugm-3 (GRAV EQ),24,R,ugm-3,65,R,ugm-3,101,R,ugm-3,8,R,ugm-3
11-01-2003,21:00,,,,17,R,ugm-3 (GRAV EQ),23,R,ugm-3,63,R,ugm-3,97,R,ugm-3,5,R,ugm-3
11-01-2003,22:00,,,,26,R,ugm-3 (GRAV EQ),75,R,ugm-3,67,R,ugm-3,181,R,ugm-3,8,R,ugm-3
11-01-2003,23:00,,,,21,R,ugm-3 (GRAV EQ),41,R,ugm-3,65,R,ugm-3,128,R,ugm-3,5,R,ugm-3
11-01-2003,24:00,,,,20,R,ugm-3 (GRAV EQ),30,R,ugm-3,65,R,ugm-3,111,R,ugm-3,5,R,ugm-3
12-01-2003,01:00,,,,14,R,ugm-3 (GRAV EQ),6,R,ugm-3,46,R,ugm-3,55,R,ugm-3,5,R,ugm-3
12-01-2003,02:00,,,,13,R,ugm-3 (GRAV EQ),1,R,ugm-3,23,R,ugm-3,25,R,ugm-3,3,R,ugm-3
12-01-2003,03:00,,,,13,R,ugm-3 (GRAV EQ),1,R,ugm-3,11,R,ugm-3,13,R,ugm-3,3,R,ugm-3
12-01-2003,04:00,,,,16,R,ugm-3 (GRAV EQ),1,R,ugm-3,13,R,ugm-3,15,R,ugm-3,3,R,ugm-3
12-01-2003,05:00,,,,17,R,ugm-3 (GRAV EQ),1,R,ugm-3,17,R,ugm-3,19,R,ugm-3,3,R,ugm-3
12-01-2003,06:00,,,,16,R,ugm-3 (GRAV EQ),1,R,ugm-3,10,R,ugm-3,11,R,ugm-3,3,R,ugm-3
12-01-2003,07:00,,,,16,R,ugm-3 (GRAV EQ),1,R,ugm-3,11,R,ugm-3,13,R,ugm-3,3,R,ugm-3
12-01-2003,08:00,,,,18,R,ugm-3 (GRAV EQ),1,R,ugm-3,13,R,ugm-3,15,R,ugm-3,3,R,ugm-3
12-01-2003,09:00,,,,18,R,ugm-3 (GRAV EQ),1,R,ugm-3,11,R,ugm-3,13,R,ugm-3,3,R,ugm-3
12-01-2003,10:00,,,,21,R,ugm-3 (GRAV EQ),1,R,ugm-3,10,R,ugm-3,11,R,ugm-3,0,R,ugm-3
12-01-2003,11:00,,,,14,R,ugm-3 (GRAV EQ),1,R,ugm-3,11,R,ugm-3,13,R,ugm-3,0,R,ugm-3
12-01-2003,12:00,,,,8,R,ugm-3 (GRAV EQ),1,R,ugm-3,10,R,ugm-3,11,R,ugm-3,0,R,ugm-3
12-01-2003,13:00,,,,7,R,ugm-3 (GRAV EQ),3,R,ugm-3,11,R,ugm-3,15,R,ugm-3,0,R,ugm-3
12-01-2003,14:00,,,,7,R,ugm-3 (GRAV EQ),1,R,ugm-3,10,R,ugm-3,11,R,ugm-3,0,R,ugm-3
12-01-2003,15:00,,,,7,R,ugm-3 (GRAV EQ),3,R,ugm-3,10,R,ugm-3,13,R,ugm-3,0,R,ugm-3
12-01-2003,16:00,,,,8,R,ugm-3 (GRAV EQ),1,R,ugm-3,11,R,ugm-3,13,R,ugm-3,0,R,ugm-3